Location: Hertford
(51.8000°N, 0.0667°W)
Time: 02:06:34
(UTC+00:00)

NOSS 3-4 (A) - Pass Details

Date: 18 September 2020
Orbit: 885 x 1327 km, 63.4° (Epoch: 27 October)

Event Time Altitude Azimuth Distance (km) Brightness Sun altitude
Exits shadow 22:41:30 51° 9° (N) 1,207 4.1 -34.6°
Drops below altitude 10° 22:46:43 10° 44° (NE) 2,824 6.1 -34.9°
Sets 22:49:32 0° 48° (NE) 3,846 6.9 -35.1°
